map of BEL home
BEL - Airport
Location
City:  Belém, Pará, Brazil
Name:Belém International - Val-de-Căes
Old (Alt.):Júlio Cezar Ribeiro
ICAO:SBBE
IATA:BEL

Details
Type:Airport (Aerodrome, Airfield)
Use:Public/Civil, Military, International (customs port of entry)
Latitude:1°22'45"S (-1.379249)
Longitude:48°28'35"W (-48.476291)
Datum:WGS 1984
Elevation:54 ft (16 m)
Variation:20.14°W (WMM2015v2 magnetic declination)
-0.02° annual change
Runways:2
Longest:9180 × 148 ft (2798 × 45 m), paved

Time
Time Zone:UTC-3
Local Time:

Weather
METAR:SBBE 041400Z 04008KT 9999 BKN028 29/24 Q1012
TAF:SBBE 041000Z 0412/0512 09005KT 9999 BKN020 TX30/0416Z TN25/0407Z
BECMG 0414/0416 SCT030
BECMG 0416/0418 33006KT
BECMG 0419/0421 01005KT
BECMG 0423/0424 06005KT FEW025
RMK PFF

Related Locations
Nearby:
Farthest:WAJY: 12300 mi / 19795 km
Werur [Werur Airport], PB, ID

Find:

   beyond  
but within

Other Information
Maps:
NOTAMs:
Links:
Sources:

  
  • flag of Brazil
  • flag of Pará
  • flag of Belém
  

Sectional Chart

Flight Planning
at skyvector.com

Satellite Image

Google Maps Satellite view

 

Copyright © 2004-2019 Karl L. Swartz. All rights reserved.
The Great Circle Mapper name and logo are trademarks of the Great Circle Mapper.
All other trademarks mentioned herein belong to their respective owners.
Please see credits for attibutions and further copyright information.

  Follow gcmap on Facebook Follow gcmap on Twitter GCmap on LinkedIn

hCard Microformat

Geo Microformat